Weather observations for the past three days for
Duluth - Sky Harbor Airport
Metric (Imperial)
Date Time (cdt) Wind (kph) Vis. (km) Weather Sky Cond. Temperature (ºC) Relative Humidity Wind Chill (°C) Heat Index (°C) Pressure Precipitation (cm)
Air Dwpt 6 hour altimeter (cm) sea level (mb) 1 hr 3 hr 6 hr
Max. Min.
07 04:55 W 19 16.09 A Few Clouds FEW041 FEW049 4 -2 65% 0 75.87 0.0
07 04:35 W 13 16.09 A Few Clouds FEW042 FEW050 4 -3 61% 1 75.87 0.0
07 04:15 W 15 16.09 Partly Cloudy FEW034 SCT047 SCT055 4 -3 61% 1 75.87 0.0
07 03:55 W 20 16.09 Mostly Cloudy FEW046 BKN060 BKN075 4 -3 61% 0 75.87 0.0
07 03:35 W 13 16.09 Overcast OVC070 4 -2 65% 1 75.87 0.0
07 03:15 SW 11 16.09 Overcast OVC070 4 -2 65% 2 75.87 0.0
07 02:55 SW 11 16.09 Overcast OVC070 5 -2 61% 3 75.87 0.0
07 02:35 SW 15 16.09 Overcast OVC070 5 -2 61% 2 75.87 0.0
07 02:15 SW 15 16.09 Overcast FEW049 OVC070 5 -2 61% 2 75.9 0.0
07 01:55 SW 11 16.09 Overcast SCT050 SCT055 OVC070 5 -2 61% 3 75.9 0.0
07 01:35 SW 13 16.09 Overcast SCT050 BKN060 OVC070 5 -2 61% 2 75.92 0.0
07 01:15 SW 11 16.09 Overcast BKN060 OVC070 5 -2 61% 3 75.92 0.0
07 00:55 SW 11 16.09 Overcast OVC065 5 -2 61% 3 75.95 0.0
07 00:35 SW 9 16.09 Overcast OVC070 5 -2 61% 3 75.95 0.0
07 00:15 SW 9 16.09 Overcast OVC070 5 -3 57% 3 75.97 0.0
06 23:55 SW 11 16.09 Overcast OVC070 5 -2 61% 3 75.97 0.0
06 23:35 SW 7 16.09 Overcast OVC070 5 -3 57% 4 75.97 0.0
06 23:15 SW 7 16.09 Overcast OVC070 5 -3 57% 4 76 0.0
06 22:55 SW 13 16.09 Overcast OVC065 6 -3 53% 4 76 0.0
06 22:35 W 9 16.09 Overcast OVC060 6 -3 53% 4 76 0.0
06 22:15 W 13 16.09 Overcast OVC060 6 -3 53% 4 76.02 0.0
06 21:55 W 13 16.09 Overcast OVC060 6 -3 53% 4 76.02 0.0
06 21:35 W 17 16.09 Overcast OVC060 6 -3 53% 3 76.02 0.0
06 21:15 W 22 16.09 Overcast OVC065 6 -3 53% 2 76 0.0
06 20:55 W 17 16.09 Overcast OVC065 6 -3 53% 3 76 0.0
06 20:35 W 19 16.09 Overcast OVC060 6 -3 53% 3 76 0.0
06 20:15 W 17 16.09 Overcast OVC060 6 -3 53% 3 76 0.0
06 19:55 W 20 16.09 Overcast OVC060 6 -2 57% 3 76 0.0
06 19:35 W 20 16.09 Overcast OVC060 6 -2 57% 3 76 0.0
06 19:15 W 20 G 35 16.09 Overcast OVC060 6 -2 57% 3 76 0.0
06 18:55 W 28 16.09 Overcast BKN055 OVC070 7 -2 53% 3 76 0.0
06 18:35 W 31 16.09 Overcast BKN050 OVC060 7 -2 53% 3 76 0.0
06 18:15 W 26 16.09 Overcast SCT050 OVC060 7 -3 49% 3 76 0.0
06 17:55 W 26 16.09 Overcast BKN055 OVC065 7 -3 49% 3 76 0.0
06 17:35 W 24 16.09 Overcast OVC060 7 -4 46% 4 76 0.0
06 17:15 W 28 16.09 Overcast OVC060 7 -4 46% 3 76 0.0
06 16:55 W 28 16.09 Overcast OVC055 7 -4 46% 3 76 0.0
06 16:35 W 26 16.09 Overcast OVC055 7 -4 46% 3 76 0.0
06 16:15 W 24 16.09 Overcast OVC050 7 -4 46% 4 76 0.0
06 15:55 W 26 16.09 Overcast SCT050 OVC055 7 -4 46% 3 76 0.0
06 15:35 W 28 16.09 Overcast FEW050 OVC055 7 -4 46% 3 76 0.0
06 15:15 W 20 G 33 16.09 Overcast SCT048 OVC060 7 -3 49% 4 76.02 0.0
06 14:55 W 24 16.09 Overcast BKN047 OVC055 7 -3 49% 4 76.02 0.0
06 14:35 SW 24 16.09 Overcast BKN045 OVC050 7 -3 49% 4 76.02 0.0
06 14:15 W 24 16.09 Overcast BKN045 OVC055 6 -3 53% 2 76.05 0.0
06 13:55 W 24 16.09 Overcast FEW032 BKN046 OVC055 6 -3 53% 2 76.05 0.0
06 13:35 W 30 G 41 16.09 Overcast BKN046 OVC050 6 -3 53% 2 76.05 0.0
06 13:15 NW 24 16.09 Overcast BKN049 OVC055 6 -4 49% 2 76.05 0.0
06 12:55 W 26 16.09 Overcast OVC048 6 -4 49% 2 76.05 0.0
06 12:35 W 22 G 33 16.09 Overcast OVC048 6 -5 46% 2 76.05 0.0
06 12:15 NW 28 16.09 Overcast OVC047 6 -4 49% 2 76.05 0.0
06 11:55 W 26 16.09 Overcast OVC047 6 -5 46% 2 76.07 0.0
06 11:35 W 20 16.09 Overcast OVC047 5 -5 49% 1 76.07 0.0
06 11:15 W 24 G 35 16.09 Overcast SCT044 BKN050 OVC055 5 -5 49% 1 76.07 0.0
06 10:55 W 26 16.09 Overcast FEW043 BKN050 OVC055 5 -4 53% 1 76.07 0.0
06 10:35 NW 24 G 35 16.09 Overcast BKN044 OVC055 5 -5 49% 1 76.07 0.0
06 10:15 W 19 16.09 Overcast BKN041 OVC046 5 -5 49% 2 76.1 0.0
06 09:55 NW 22 16.09 Overcast OVC040 4 -5 52% -0 76.1 0.0
06 09:35 W 24 16.09 Overcast OVC041 4 -4 56% -0 76.1 0.0
06 09:15 NW 30 16.09 Overcast OVC041 4 -5 52% -1 76.1 0.0
06 08:55 NW 26 G 39 16.09 Overcast OVC041 4 -5 52% -0 76.1 0.0
06 08:35 NW 28 G 41 16.09 Mostly Cloudy BKN041 4 -5 52% -1 76.1 0.0
06 08:15 W 26 16.09 Fair CLR 4 -5 52% -0 76.07 0.0
06 07:55 W 20 16.09 Fair CLR 3 -4 60% -1 76.07 0.0
06 07:35 NW 19 16.09 Fair CLR 3 -4 60% -1 76.07 0.0
06 07:15 NW 17 G 28 16.09 Fair CLR 2 -4 65% -2 76.05 0.0
06 06:55 W 20 16.09 Mostly Cloudy BKN060 1 -4 70% -4 76.05 0.0
06 06:35 W 20 16.09 Overcast OVC065 1 -4 70% -4 76.02 0.0
06 06:15 W 22 16.09 Overcast OVC065 1 -5 65% -4 76.02 0.0
06 05:55 NW 22 16.09 Mostly Cloudy BKN065 1 -4 70% -4 76 0.0
06 05:35 W 24 16.09 A Few Clouds FEW055 1 -5 65% -4 76 0.0
06 05:15 W 22 16.09 Mostly Cloudy BKN055 BKN065 1 -5 65% -4 76.02 0.0
06 04:55 W 24 16.09 Mostly Cloudy SCT055 BKN065 2 -5 60% -3 76 0.0
06 04:35 NW 22 16.09 A Few Clouds FEW050 2 -5 60% -3 76 0.0
06 04:15 NW 26 16.09 Fair CLR 2 -5 60% -3 76 0.0
06 03:55 NW 26 16.09 Fair CLR 2 -5 60% -3 76 0.0
06 03:35 NW 24 16.09 A Few Clouds FEW050 2 -5 60% -3 75.97 0.0
06 03:15 NW 19 16.09 Partly Cloudy FEW050 SCT060 2 -6 56% -2 75.97 0.0
06 02:55 NW 20 G 33 16.09 Overcast FEW041 BKN049 OVC055 3 -5 56% -1 75.97 0.0
06 02:35 NW 26 16.09 Overcast OVC045 4 -5 52% -0 75.95 0.0
06 02:15 NW 17 G 30 16.09 Overcast OVC046 4 -5 52% 1 75.95 0.0
06 01:55 W 22 G 31 16.09 Overcast OVC046 4 -6 48% -0 75.95 0.0
06 01:35 NW 28 G 37 16.09 Overcast OVC046 4 -6 48% -1 75.95 0.0
06 01:15 NW 22 16.09 Overcast OVC046 4 -6 48% -0 75.95 0.0
06 00:55 W 22 G 35 16.09 Overcast OVC045 4 -5 52% -0 75.95 0.0
06 00:35 W 20 16.09 Overcast OVC045 4 -5 52% 0 75.95 0.0
06 00:15 NW 19 16.09 Overcast OVC046 4 -6 48% 0 75.92 0.0
05 23:55 NW 24 G 35 16.09 Overcast OVC047 4 -6 48% -0 75.92 0.0
05 23:35 NW 24 16.09 Overcast OVC046 4 -6 48% -0 75.92 0.0
05 23:15 NW 22 16.09 Overcast OVC046 4 -5 52% -0 75.92 0.0
05 22:55 W 24 16.09 Overcast OVC046 4 -5 52% -0 75.92 0.0
05 22:35 W 22 16.09 Overcast OVC046 5 -5 49% 1 75.92 0.0
05 22:15 NW 22 16.09 Overcast OVC047 5 -5 49% 1 75.92 0.0
05 21:55 NW 22 16.09 Overcast OVC048 5 -5 49% 1 75.92 0.0
05 21:35 NW 26 16.09 Overcast OVC049 5 -5 49% 1 75.9 0.0
05 21:15 NW 30 16.09 Overcast OVC050 5 -5 49% 0 75.87 0.0
05 20:55 NW 26 G 41 16.09 Overcast OVC055 5 -5 49% 1 75.84 0.0
05 20:35 NW 26 16.09 Overcast OVC050 5 -6 45% 1 75.84 0.0
05 20:15 NW 31 16.09 Overcast OVC050 6 -5 46% 2 75.82 0.0
05 19:55 W 24 G 33 16.09 Overcast OVC050 6 -5 46% 2 75.82 0.0
05 19:35 NW 26 16.09 Overcast OVC050 6 -5 46% 2 75.79 0.0
05 19:15 NW 28 G 41 16.09 Overcast OVC050 6 -5 46% 2 75.79 0.0
05 18:55 NW 31 16.09 Overcast OVC050 6 -5 46% 2 75.77 0.0
05 18:35 NW 35 16.09 Overcast and Breezy OVC050 7 -5 43% 3 75.74 0.0
05 18:15 W 30 16.09 Overcast OVC050 7 -5 43% 3 75.74 0.0
05 17:55 W 26 G 35 16.09 Overcast OVC050 7 -4 46% 3 75.74 0.0
05 17:35 W 30 16.09 Overcast OVC050 8 -5 40% 4 75.74 0.0
05 17:15 NW 24 G 35 16.09 Overcast OVC050 7 -5 43% 4 75.72 0.0
05 16:55 W 30 16.09 Overcast OVC050 7 -4 46% 3 75.72 0.0
05 16:35 NW 24 G 41 16.09 Overcast OVC050 7 -5 43% 4 75.72 0.0
05 16:15 NW 31 16.09 Overcast OVC050 7 -4 46% 3 75.72 0.0
05 15:55 W 37 16.09 Overcast and Breezy OVC049 7 -4 46% 3 75.72 0.0
05 15:35 NW 28 16.09 Overcast OVC050 7 -4 46% 3 75.72 0.0
05 15:15 NW 28 G 44 16.09 Overcast BKN050 OVC055 6 -4 49% 2 75.72 0.0
05 14:55 W 28 G 43 16.09 Overcast OVC050 7 -4 46% 3 75.72 0.0
05 14:35 NW 33 16.09 Overcast and Breezy BKN050 OVC055 7 -4 46% 3 75.72 0.0
05 14:15 NW 30 16.09 Overcast OVC049 6 -5 46% 2 75.72 0.0
05 13:55 W 22 G 35 16.09 Overcast OVC049 6 -5 46% 2 75.72 0.0
05 13:35 NW 26 G 41 16.09 Overcast OVC050 6 -5 46% 2 75.69 0.0
05 13:15 NW 30 G 44 16.09 Overcast BKN048 OVC055 6 -5 46% 2 75.69 0.0
05 12:55 W 31 16.09 Overcast BKN048 OVC055 6 -5 46% 2 75.69 0.0
05 12:35 NW 31 G 46 16.09 Overcast OVC050 6 -5 46% 2 75.69 0.0
05 12:15 NW 26 G 37 16.09 Overcast BKN048 OVC055 5 -5 49% 1 75.69 0.0
05 11:55 NW 33 16.09 Overcast and Breezy OVC046 5 -5 49% 0 75.67 0.0
05 11:35 W 30 G 41 16.09 Overcast BKN044 OVC050 4 -5 52% -1 75.69 0.0
05 11:15 NW 33 16.09 Overcast and Breezy OVC045 4 -6 48% -1 75.67 0.0
05 10:55 NW 26 G 37 16.09 Overcast BKN044 OVC050 3 -6 52% -2 75.67 0.0
05 10:35 NW 28 G 37 16.09 Overcast BKN044 OVC050 3 -5 56% -2 75.67 0.0
05 10:15 NW 30 G 39 16.09 Overcast OVC044 3 -6 52% -2 75.64 0.0
05 09:55 NW 30 16.09 Overcast BKN044 OVC050 3 -6 52% -2 75.64 0.0
05 09:35 NW 33 G 43 16.09 Overcast and Breezy SCT042 OVC050 3 -7 48% -2 75.62 0.0
05 09:15 NW 28 G 37 14.48 Light Snow BKN043 OVC050 3 -6 52% -2 75.62 0.0
05 08:55 NW 35 G 44 16.09 Overcast and Breezy BKN048 OVC055 3 -6 52% -3 75.59 0.0
05 08:35 NW 30 16.09 Mostly Cloudy FEW043 BKN050 BKN055 3 -6 52% -2 75.57 0.0
05 08:15 NW 28 G 43 16.09 Mostly Cloudy BKN070 3 -5 56% -2 75.57 0.0
05 07:55 NW 28 16.09 Overcast FEW038 OVC075 3 -5 56% -2 75.54 0.0
05 07:35 NW 28 G 39 16.09 Mostly Cloudy SCT037 BKN075 3 -5 56% -2 75.54 0.0
05 07:15 NW 24 G 39 16.09 Overcast OVC036 3 -5 56% -2 75.51 0.0
05 06:55 NW 28 16.09 Mostly Cloudy BKN034 2 -4 65% -3 75.49 0.0
05 06:35 W 22 G 31 16.09 Partly Cloudy SCT034 2 -4 65% -3 75.49 0.0
05 06:15 W 24 G 35 16.09 Mostly Cloudy BKN035 2 -4 65% -3 75.46 0.0
05 05:55 W 28 16.09 A Few Clouds FEW037 2 -3 70% -3 75.44 0.0
05 05:35 W 24 G 41 16.09 A Few Clouds FEW039 2 -3 70% -3 75.41 0.0
05 05:15 NW 33 16.09 Partly Cloudy and Breezy SCT040 2 -3 70% -4 75.41 0.0
05 04:55 W 33 16.09 Partly Cloudy and Breezy SCT047 2 -3 70% -4 75.39 0.0
05 04:35 NW 37 G 48 16.09 Overcast and Breezy SCT038 OVC047 3 -2 70% -3 75.39 0.0
05 04:15 W 20 G 31 14.48 Light Rain FEW026 BKN034 OVC041 3 -1 75% -1 75.36 0.0
05 03:55 NW 31 G 43 16.09 Overcast BKN032 OVC048 4 -1 70% -1 75.34 0.0
05 03:35 W 22 16.09 Partly Cloudy FEW034 SCT047 3 0 81% -1 75.31 0.0
05 03:15 W 17 16.09 Partly Cloudy SCT050 3 0 81% -1 75.31 0.0
05 02:55 NW 24 G 33 16.09 Mostly Cloudy SCT037 BKN048 4 0 75% -0 75.31 0.0
05 02:35 NW 30 G 41 16.09 Overcast BKN036 BKN045 OVC055 5 -1 66% 0 75.31 0.0
05 02:15 W 26 16.09 Partly Cloudy FEW037 SCT060 5 -1 66% 1 75.29 0.0
05 01:55 W 22 G 33 16.09 Fair CLR 5 -1 66% 1 75.29 0.0
05 01:35 W 24 16.09 A Few Clouds FEW070 5 -2 61% 1 75.29 0.0
05 01:15 NW 26 16.09 Mostly Cloudy FEW060 BKN070 5 -2 61% 1 75.29 0.0
05 00:55 NW 20 16.09 Overcast BKN060 OVC075 5 -2 61% 1 75.29 0.0
05 00:35 N 9 16.09 Overcast FEW060 SCT065 OVC075 5 0 70% 3 75.29 0.0
05 00:15 NW 19 G 30 16.09 Overcast FEW043 BKN055 OVC075 6 -3 53% 3 75.26 0.0
04 23:55 W 20 16.09 Mostly Cloudy FEW050 BKN060 BKN070 7 -3 49% 4 75.26 0.0
04 23:35 W 22 16.09 Mostly Cloudy BKN070 7 -3 49% 4 75.23 0.0
04 23:15 W 26 16.09 Overcast OVC070 7 -3 49% 3 75.23 0.0
04 22:55 W 26 16.09 Overcast FEW045 FEW065 OVC075 7 -3 49% 3 75.23 0.0
04 22:35 W 28 G 39 16.09 Overcast FEW065 OVC075 8 -4 43% 4 75.23 0.0
04 22:15 W 37 16.09 Overcast and Breezy OVC075 8 -4 43% 4 75.21 0.0
04 21:55 W 22 G 31 16.09 Overcast OVC075 8 -4 43% 5 75.21 0.0
04 21:35 W 26 16.09 Overcast SCT070 OVC080 8 -4 43% 5 75.21 0.0
04 21:15 W 26 16.09 Overcast FEW065 OVC075 8 -4 43% 5 75.18 0.0
04 20:55 W 33 16.09 Overcast and Breezy SCT070 OVC080 8 -4 43% 4 75.16 0.0
04 20:35 W 28 16.09 Overcast SCT070 OVC080 8 -5 40% 4 75.13 0.0
04 20:15 W 39 G 52 16.09 Overcast and Breezy FEW065 OVC075 8 -4 43% 4 75.13 0.0
04 19:55 W 33 G 44 16.09 Overcast and Breezy OVC075 8 -4 43% 4 75.11 0.0
04 19:35 W 37 16.09 Overcast and Breezy OVC075 9 -4 40% 5 75.11 0.0
04 19:15 W 31 G 44 16.09 Overcast BKN065 OVC075 9 -3 43% 5 75.08 0.0
04 18:55 W 41 16.09 Mostly Cloudy and Breezy BKN060 9 -3 43% 5 75.08 0.0
04 18:35 W 33 G 48 16.09 Overcast and Breezy OVC060 9 -2 46% 5 75.11 0.0
04 18:15 W 39 G 52 16.09 Overcast and Breezy OVC060 9 -2 46% 5 75.08 0.0
04 17:55 W 39 G 48 16.09 Overcast and Breezy OVC060 9 -1 50% 5 75.06 0.0
04 17:35 W 41 G 54 16.09 Overcast and Breezy SCT050 OVC060 9 -2 46% 5 75.06 0.0
04 17:15 W 43 16.09 Overcast and Windy BKN050 OVC065 9 -1 50% 5 75.03 0.0
04 16:55 W 43 G 57 16.09 Overcast and Windy BKN050 OVC065 10 -1 47% 6 74.98 0.0
04 16:35 W 33 16.09 Overcast and Breezy BKN050 OVC070 10 -1 47% 7 74.96 0.0
04 16:15 W 39 16.09 Overcast and Breezy FEW050 BKN060 OVC070 10 -1 47% 6 74.93 0.0
04 15:55 W 41 G 57 16.09 Overcast and Breezy BKN060 OVC070 10 0 50% 6 74.93 0.0
04 15:35 W 37 G 48 16.09 Overcast and Breezy BKN060 OVC070 10 -1 47% 6 74.9 0.0
04 15:15 W 41 G 52 16.09 Overcast and Breezy BKN060 OVC070 11 -1 44% 74.9 0.0
04 14:55 NW 41 G 52 16.09 Overcast and Breezy OVC060 11 -1 44% 74.88 0.0
04 14:35 W 48 G 61 16.09 Mostly Cloudy and Windy BKN055 BKN065 11 -1 44% 74.85 0.0
04 14:15 W 41 G 57 16.09 Overcast and Breezy FEW050 OVC060 11 -1 44% 74.83 0.0
04 13:55 NW 43 G 56 16.09 Overcast and Windy BKN055 OVC065 12 0 44% 74.8 0.0
04 13:35 W 41 G 69 16.09 Mostly Cloudy and Breezy BKN055 BKN060 12 -1 41% 74.78 0.0
04 13:15 W 48 G 57 16.09 Mostly Cloudy and Windy BKN050 BKN060 11 1 50% 74.75 0.0
04 12:55 NW 39 G 61 16.09 Mostly Cloudy and Breezy FEW048 BKN060 12 0 44% 74.73 0.0
04 12:35 W 43 G 54 16.09 Overcast and Windy BKN047 OVC055 11 1 50% 74.73 0.0
04 12:15 W 39 G 50 16.09 Overcast and Breezy BKN049 OVC060 11 1 50% 74.7 0.0
04 11:55 W 41 G 54 16.09 Overcast and Breezy BKN048 OVC055 11 1 50% 74.7 0.0
04 11:35 W 50 G 61 16.09 Overcast and Windy BKN050 OVC060 12 1 47% 74.65 0.0
04 11:15 W 41 G 61 16.09 Overcast and Breezy SCT048 OVC055 12 1 47% 74.63 0.0
04 10:55 W 50 G 59 16.09 Overcast and Windy BKN048 OVC055 11 1 50% 74.63 0.0
04 10:35 W 48 G 61 16.09 Overcast and Windy OVC050 12 1 47% 74.57 0.0
04 10:15 NW 52 G 61 16.09 Overcast and Windy BKN050 OVC055 12 1 47% 74.55 0.0
04 09:55 W 46 G 61 16.09 Overcast and Windy BKN050 OVC055 12 2 51% 74.52 0.0
04 09:35 W 48 G 59 16.09 Overcast and Windy SCT047 OVC055 12 2 51% 74.52 0.0
04 09:15 W 41 G 52 16.09 Mostly Cloudy and Breezy SCT044 BKN050 BKN055 12 4 58% 74.5 0.0
04 08:55 W 46 G 56 16.09 Overcast and Windy BKN043 OVC049 12 4 58% 74.47 0.0
04 08:35 W 56 16.09 Mostly Cloudy and Windy SCT042 SCT049 BKN110 12 4 58% 74.45 0.0
04 08:15 W 24 G 33 16.09 Mostly Cloudy FEW037 FEW080 BKN110 12 5 63% 74.42 0.0
04 07:55 W 24 G 33 16.09 Overcast FEW039 OVC100 12 5 63% 74.4 0.0
04 07:35 W 41 G 63 16.09 Overcast and Breezy FEW039 BKN060 OVC095 12 5 63% 74.42 0.0
04 07:15 W 28 16.09 Overcast OVC060 13 5 59% 74.4 0.0
04 06:55 W 26 G 37 16.09 Mostly Cloudy SCT065 BKN120 13 5 59% 74.35 0.0
04 06:35 NW 33 G 50 16.09 Partly Cloudy and Breezy SCT120 13 5 59% 74.32 0.0
04 06:15 NW 50 16.09 Fair and Windy CLR 13 5 59% 74.32 0.0
04 05:55 SW 41 G 59 16.09 Fair and Breezy CLR 16 0 34% 74.22 0.0
04 05:35 SW 31 G 41 16.09 A Few Clouds FEW120 16 0 34% 74.17 0.0
04 05:15 SW 33 G 43 16.09 Mostly Cloudy and Breezy FEW055 SCT075 BKN110 16 0 34% 74.19 0.0
Date Time (cdt) Wind (kph) Vis. (km) Weather Sky Cond. Air Dwpt Max. Min. Relative Humidity Wind Chill (°C) Heat Index (°C) altimeter (cm) sea level (mb) 1 hr 3 hr 6 hr
6 hour
Temperature (ºC) Pressure Precipitation (cm)